Location: Oshawa
(43.9000°N, 78.8670°W)
Time: 17:48:12
(UTC-05:00)

ITAMSAT 1 - Visible Passes

Search period start: 20 November 2017 00:00
Search period end: 30 November 2017 00:00
Orbit: 785 x 796 km, 98.8° (Epoch: 19 November)

Date Brightness Start Highest point End Pass type
(mag) Time Alt. Az. Time Alt. Az. Time Alt. Az.
20 Nov 9.8 04:10:37 10° NNE 04:11:49 17° NNE 04:11:49 17° NNE visible
20 Nov 9.6 05:51:48 10° NNW 05:52:32 12° NNW 05:52:32 12° NNW visible
21 Nov 10.3 03:41:25 10° NNE 03:41:55 13° NNE 03:41:55 13° NNE visible
21 Nov 9.5 05:21:25 10° N 05:22:38 15° NNW 05:22:38 15° NNW visible
22 Nov 9.6 04:51:33 10° N 04:52:45 17° N 04:52:45 17° N visible
23 Nov 9.9 04:21:58 10° NNE 04:22:51 15° N 04:22:51 15° N visible
24 Nov 10.3 03:52:40 10° NNE 03:52:58 12° NNE 03:52:58 12° NNE visible
24 Nov 9.7 05:33:03 10° NNW 05:33:41 12° NNW 05:33:41 12° NNW visible
25 Nov 9.7 05:03:02 10° N 05:03:48 14° N 05:03:48 14° N visible
26 Nov 9.9 04:33:22 10° N 04:33:55 13° N 04:33:55 13° N visible
27 Nov 10.3 04:03:57 10° NNE 04:04:02 10° NNE 04:04:02 10° NNE visible
28 Nov 9.9 05:14:34 10° N 05:14:53 11° N 05:14:53 11° N visible
29 Nov 10.0 04:44:47 10° N 04:45:01 11° N 04:45:01 11° N visible
